User: anonymous   Login
Location: Catstown
(52.4386°N, 7.2633°W)
Time: 20:06:17
(UTC+00:00)
Language:

Meteor 2-5 Rocket - Orbit

View from above orbital plane
View from above orbital plane
View from above satellite
View from above satellite

Ground track
Ground track

The orbit data is extracted from the following two-line orbital elements,

1 11608U 79095B   21169.56375365  .00000227  00000-0  12889-3 0  9997
2 11608  81.2138 231.8223 0054529  15.1421 345.1363 14.06175084135359
Epoch (UTC): 18 June 2021 13:31:48
Eccentricity: 0.0054529
inclination: 81.2138°
perigee height: 833 km
apogee height: 912 km
right ascension of ascending node: 231.8223°
argument of perigee: 15.1421°
revolutions per day: 14.06175084
mean anomaly at epoch: 345.1363°
orbit number at epoch: 13535

The dashed part of the orbit path shows where the satellite is in the earth's shadow,  

DLR